AG4OX Weather Reports


Display with metric or nautical units.
time (UTC)temp
F
wind
direction
speed
MPH
gust
MPH
rain 1hr
in
rain 24hr
in
rain mn
in
humidity
%
barometer
mb
20260507230006 88 97 2.0 3.0 0.00 0.00 0.00 61 1010.8
20260507224007 89 102 5.0 12.0 0.00 0.00 0.00 60 1010.8
20260507223005 92 81 8.0 12.0 0.00 0.00 0.00 53 1010.8
20260507222006 94 263 1.0 3.0 0.00 0.00 0.00 43 1010.5
20260507221007 95 226 2.0 5.0 0.00 0.00 0.00 43 1010.5
20260507220005 95 197 3.0 10.0 0.00 0.00 0.00 42 1010.4
20260507215005 94 222 3.0 5.0 0.00 0.00 0.00 41 1010.4
20260507214006 94 212 3.0 12.0 0.00 0.00 0.00 44 1010.5
20260507213007 94 180 2.0 9.0 0.00 0.00 0.00 42 1010.6
20260507212007 94 171 5.0 10.0 0.00 0.00 0.00 42 1010.7
20260507211007 94 167 3.0 8.0 0.00 0.00 0.00 41 1010.7
20260507210006 95 158 3.0 9.0 0.00 0.00 0.00 40 1010.8
20260507205007 94 219 3.0 8.0 0.00 0.00 0.00 39 1010.8
20260507204005 95 206 5.0 9.0 0.00 0.00 0.00 39 1010.9
20260507203006 94 173 3.0 9.0 0.00 0.00 0.00 40 1011.0
20260507202006 94 136 1.0 8.0 0.00 0.00 0.00 41 1011.2
20260507201005 93 180 3.0 12.0 0.00 0.00 0.00 42 1011.1
20260507200005 93 191 4.0 10.0 0.00 0.00 0.00 44 1011.3
20260507195005 93 220 5.0 12.0 0.00 0.00 0.00 42 1011.5
20260507194006 93 128 3.0 10.0 0.00 0.00 0.00 43 1011.4
20260507193007 93 246 3.0 7.0 0.00 0.00 0.00 45 1011.6
20260507192006 92 284 4.0 10.0 0.00 0.00 0.00 46 1011.9
20260507191007 93 276 4.0 9.0 0.00 0.00 0.00 45 1012.1
20260507190006 93 263 2.0 13.0 0.00 0.00 0.00 46 1012.1
20260507185006 92 215 2.0 9.0 0.00 0.00 0.00 48 1012.5
20260507184006 92 229 3.0 9.0 0.00 0.00 0.00 48 1012.6
20260507183006 91 224 6.0 13.0 0.00 0.00 0.00 51 1012.8
20260507182006 90 211 5.0 12.0 0.00 0.00 0.00 51 1012.9
20260507181006 90 170 5.0 12.0 0.00 0.00 0.00 50 1013.1
20260507175006 89 151 3.0 10.0 0.00 0.00 0.00 55 1013.2
20260507172007 89 280 3.0 12.0 0.00 0.00 0.00 57 1013.6
20260507170006 88 158 3.0 13.0 0.00 0.00 0.00 62 1013.5
20260507165007 88 247 2.0 8.0 0.00 0.00 0.00 62 1013.5
20260507164006 87 190 2.0 12.0 0.00 0.00 0.00 61 1013.8
20260507163006 87 200 3.0 10.0 0.00 0.00 0.00 60 1013.9
20260507162006 87 232 2.0 10.0 0.00 0.00 0.00 61 1014.0
20260507161007 87 252 4.0 9.0 0.00 0.00 0.00 62 1014.3
20260507155006 85 195 5.0 8.0 0.00 0.00 0.00 62 1014.5
20260507154009 86 142 3.0 12.0 0.00 0.00 0.00 63 1014.6
20260507153007 84 286 3.0 10.0 0.00 0.00 0.00 65 1014.5
20260507152006 83 195 5.0 12.0 0.00 0.00 0.00 67 1014.6
20260507151006 83 241 5.0 12.0 0.00 0.00 0.00 66 1014.7
20260507150007 82 221 5.0 10.0 0.00 0.00 0.00 68 1014.7
20260507145006 82 232 6.0 12.0 0.00 0.00 0.00 68 1014.8
20260507144005 82 228 6.0 12.0 0.00 0.00 0.00 69 1014.9
20260507143006 82 208 3.0 9.0 0.00 0.00 0.00 70 1014.8
20260507142006 81 227 4.0 12.0 0.00 0.00 0.00 72 1014.9
20260507141007 81 216 3.0 10.0 0.00 0.00 0.00 70 1014.8
20260507140006 81 207 3.0 12.0 0.00 0.00 0.00 69 1014.8
20260507135006 80 235 5.0 12.0 0.00 0.00 0.00 70 1014.9
20260507134006 79 225 4.0 10.0 0.00 0.00 0.00 72 1014.9
20260507132008 79 190 3.0 9.0 0.00 0.00 0.00 75 1014.9
20260507131006 78 150 3.0 7.0 0.00 0.00 0.00 76 1014.8
20260507130005 78 174 2.0 6.0 0.00 0.00 0.00 79 1014.9
20260507125005 76 146 1.0 3.0 0.00 0.00 0.00 81 1014.8
20260507124006 75 161 1.0 3.0 0.00 0.00 0.00 82 1015.0
20260507123007 74 211 0.0 2.0 0.00 0.00 0.00 83 1014.9
20260507122005 73 161 1.0 3.0 0.00 0.00 0.00 83 1014.9
20260507121006 71 122 0.0 1.0 0.00 0.00 0.00 67 1014.9
20260507120006 70 122 0.0 0.0 0.00 0.00 0.00 66 1014.9
20260507115008 69 121 0.0 0.0 0.00 0.00 0.00 66 1014.9
20260507114006 67 121 0.0 1.0 0.00 0.00 0.00 67 1014.7
20260507113006 66 134 0.0 0.0 0.00 0.00 0.00 68 1014.7
20260507112006 65 134 0.0 1.0 0.00 0.00 0.00 68 1014.6
20260507111005 65 153 0.0 1.0 0.00 0.00 0.00 68 1014.3
20260507110008 64 153 0.0 1.0 0.00 0.00 0.00 69 1014.5
20260507104006 64 184 0.0 0.0 0.00 0.00 0.00 71 1014.4
20260507103007 64 184 0.0 0.0 0.00 0.00 0.00 70 1014.2
20260507102007 64 184 0.0 0.0 0.00 0.00 0.00 70 1013.9
20260507100005 64 175 0.0 1.0 0.00 0.00 0.00 70 1013.5
20260507095005 65 199 0.0 1.0 0.00 0.00 0.00 71 1013.6
20260507094006 65 199 0.0 1.0 0.00 0.00 0.00 70 1013.7
20260507093006 65 199 0.0 1.0 0.00 0.00 0.00 70 1013.7
20260507092006 65 96 0.0 0.0 0.00 0.00 0.00 71 1013.4
20260507091006 65 96 0.0 0.0 0.00 0.00 0.00 71 1013.5
20260507090006 65 96 0.0 0.0 0.00 0.00 0.00 72 1013.2
20260507085006 65 96 0.0 0.0 0.00 0.00 0.00 70 1013.0
20260507081007 65 96 0.0 1.0 0.00 0.00 0.00 73 1012.8
20260507080005 65 133 0.0 1.0 0.00 0.00 0.00 74 1012.9
20260507075006 65 171 0.0 1.0 0.00 0.00 0.00 75 1012.9
20260507074005 65 171 0.0 1.0 0.00 0.00 0.00 76 1012.9
20260507073006 66 171 0.0 1.0 0.00 0.00 0.00 75 1013.0
20260507072008 66 173 1.0 1.0 0.00 0.00 0.00 75 1013.1
20260507071005 66 286 0.0 0.0 0.00 0.00 0.00 76 1013.3
20260507070010 66 286 0.0 0.0 0.00 0.00 0.00 75 1013.6
20260507065006 66 286 0.0 0.0 0.00 0.00 0.00 78 1013.6
20260507063006 67 286 0.0 2.0 0.00 0.00 0.00 79 1014.0
20260507062007 67 179 0.0 1.0 0.00 0.00 0.00 79 1014.0
20260507061006 67 179 0.0 0.0 0.00 0.00 0.00 80 1013.9
20260507055006 68 179 0.0 1.0 0.00 0.00 0.00 82 1014.1
20260507054006 68 227 0.0 1.0 0.00 0.00 0.00 81 1013.9
20260507052005 69 227 0.0 2.0 0.00 0.00 0.00 83 1014.6
20260507051005 69 247 0.0 1.0 0.00 0.00 0.00 83 1014.8
20260507050006 69 263 0.0 1.0 0.00 0.00 0.00 83 1014.9
20260507045006 69 190 0.0 2.0 0.00 0.00 0.00 83 1014.6
20260507044006 69 242 1.0 2.0 0.00 0.00 0.00 83 1014.6
20260507041006 70 206 0.0 1.0 0.00 0.00 0.00 84 1014.4
20260507040005 70 184 0.0 1.0 0.00 0.00 0.00 84 1014.4
20260507035007 71 184 0.0 1.0 0.00 0.00 0.00 84 1014.4
20260507034007 71 184 0.0 1.0 0.00 0.00 0.00 84 1014.3
20260507032006 71 106 0.0 2.0 0.00 0.00 0.00 83 1014.1
20260507031006 71 101 0.0 2.0 0.00 0.00 0.00 83 1014.2
20260507030005 71 101 0.0 2.0 0.00 0.00 0.00 83 1014.2
20260507025006 71 101 0.0 2.0 0.00 0.00 0.00 82 1014.1
20260507023007 72 101 1.0 1.0 0.00 0.00 0.00 81 1014.3
20260507022006 72 101 0.0 2.0 0.00 0.00 0.00 81 1014.3
20260507020007 72 104 0.0 1.0 0.00 0.00 0.00 79 1014.4
20260507015008 72 104 1.0 2.0 0.00 0.00 0.00 78 1014.4
20260507013006 73 104 1.0 1.0 0.00 0.00 0.00 75 1014.5
20260507012006 74 104 0.0 2.0 0.00 0.00 0.00 76 1014.5
20260507011005 74 111 1.0 2.0 0.00 0.00 0.00 72 1014.4
20260507003005 76 104 1.0 3.0 0.00 0.00 0.00 66 1014.1
20260507002006 77 93 1.0 3.0 0.00 0.00 0.00 65 1014.1
20260507001008 77 89 1.0 3.0 0.00 0.00 0.00 63 1014.0
20260506235006 79 90 2.0 7.0 0.00 0.00 0.00 60 1013.8
20260506234006 79 103 4.0 7.0 0.00 0.00 0.00 57 1013.8
20260506233006 80 83 3.0 6.0 0.00 0.00 0.00 56 1013.9
20260506231006 81 87 5.0 8.0 0.00 0.00 0.00 54 1013.9